• In Portugal
  • List of Countries
  • For 7 days
  • Water Temperature
  • Satellite Maps
  • Weather Map
  • Weather Widgets
  • user-avatar
    Login

    Hourly Weather Naftalan

    Today, 17 August, Friday

    Time Temperature Precipitation Wind Pressure Humidity
    00:00 +26°C° 0 mm 1 mps 761 mmHg 55%
    01:00 +26°C° 0 mm 1 mps 761 mmHg 55%
    02:00 +26°C° 0 mm 1 mps 760 mmHg 56%
    03:00 +26°C° 0 mm 1 mps 760 mmHg 57%
    04:00 +26°C° 0 mm 1 mps 760 mmHg 56%
    05:00 +26°C° 0 mm 1 mps 760 mmHg 55%
    06:00 +27°C° 0 mm 1 mps 760 mmHg 54%
    07:00 +29°C° 0 mm 1 mps 760 mmHg 48%
    08:00 +31°C° 0 mm 1 mps 760 mmHg 42%
    09:00 +33°C° 0 mm 1 mps 760 mmHg 36%
    10:00 +35°C° 0 mm 2 mps 759 mmHg 34%
    11:00 +36°C° 0 mm 2 mps 759 mmHg 32%
    12:00 +37°C° 0 mm 2 mps 759 mmHg 29%
    13:00 +38°C° 0 mm 3 mps 758 mmHg 29%
    14:00 +38°C° 0 mm 4 mps 758 mmHg 29%
    15:00 +38°C° 0 mm 4 mps 757 mmHg 29%
    16:00 +37°C° 0 mm 4 mps 757 mmHg 32%
    17:00 +35°C° 0 mm 3 mps 757 mmHg 36%
    18:00 +33°C° 0 mm 3 mps 757 mmHg 39%
    19:00 +31°C° 0 mm 3 mps 757 mmHg 43%
    20:00 +30°C° 0 mm 2 mps 757 mmHg 47%
    21:00 +29°C° 0 mm 1 mps 758 mmHg 51%
    22:00 +28°C° 0 mm 1 mps 757 mmHg 52%
    23:00 +28°C° 0 mm 1 mps 757 mmHg 52%

    Tomorrow, 18 August, Saturday

    Time Temperature Precipitation Wind Pressure Humidity
    00:00 +28°C° 0 mm 1 mps 757 mmHg 52%
    01:00 +27°C° 0 mm 2 mps 757 mmHg 53%
    02:00 +27°C° 0 mm 2 mps 757 mmHg 54%
    03:00 +27°C° 0 mm 2 mps 757 mmHg 55%
    04:00 +27°C° 0 mm 2 mps 757 mmHg 54%
    05:00 +28°C° 0 mm 2 mps 757 mmHg 53%
    06:00 +28°C° 0 mm 2 mps 757 mmHg 52%
    07:00 +30°C° 0 mm 2 mps 757 mmHg 47%
    08:00 +31°C° 0 mm 2 mps 757 mmHg 42%
    09:00 +33°C° 0 mm 1 mps 757 mmHg 37%
    10:00 +35°C° 0 mm 2 mps 757 mmHg 35%
    11:00 +37°C° 0 mm 2 mps 756 mmHg 32%
    12:00 +38°C° 0 mm 3 mps 756 mmHg 30%
    13:00 +38°C° 0 mm 4 mps 756 mmHg 30%
    14:00 +38°C° 0 mm 4 mps 755 mmHg 30%
    15:00 +39°C° 0 mm 5 mps 755 mmHg 30%
    16:00 +37°C° 0 mm 5 mps 755 mmHg 32%
    17:00 +36°C° 0 mm 5 mps 755 mmHg 34%
    18:00 +35°C° 0 mm 5 mps 755 mmHg 36%
    19:00 +34°C° 0 mm 5 mps 755 mmHg 39%
    20:00 +32°C° 0 mm 5 mps 756 mmHg 42%
    21:00 +30°C° 0 mm 5 mps 756 mmHg 45%
    22:00 +30°C° 0 mm 5 mps 756 mmHg 45%
    23:00 +29°C° 0 mm 5 mps 756 mmHg 45%

    Day after tomorrow, 19 August, Sunday

    Time Temperature Precipitation Wind Pressure Humidity
    00:00 +29°C° 0 mm 5 mps 756 mmHg 46%
    01:00 +29°C° 0 mm 5 mps 756 mmHg 46%
    02:00 +28°C° 0 mm 5 mps 756 mmHg 46%
    03:00 +28°C° 0 mm 5 mps 756 mmHg 46%
    04:00 +28°C° 0 mm 5 mps 756 mmHg 45%
    05:00 +28°C° 0 mm 5 mps 756 mmHg 44%
    06:00 +28°C° 0 mm 5 mps 756 mmHg 43%
    07:00 +30°C° 0 mm 5 mps 757 mmHg 38%
    08:00 +33°C° 0 mm 5 mps 757 mmHg 33%
    09:00 +36°C° 0 mm 5 mps 757 mmHg 28%
    10:00 +38°C° 0 mm 6 mps 757 mmHg 26%
    11:00 +39°C° 0 mm 7 mps 757 mmHg 24%
    12:00 +40°C° 0 mm 9 mps 757 mmHg 23%
    13:00 +39°C° 0 mm 10 mps 757 mmHg 24%
    14:00 +39°C° 0 mm 11 mps 757 mmHg 25%
    15:00 +38°C° 0 mm 12 mps 757 mmHg 26%
    16:00 +36°C° 0 mm 11 mps 757 mmHg 28%
    17:00 +34°C° 0 mm 11 mps 758 mmHg 31%
    18:00 +32°C° 0 mm 11 mps 758 mmHg 33%
    19:00 +31°C° 0 mm 10 mps 759 mmHg 38%
    20:00 +29°C° 0 mm 10 mps 759 mmHg 43%
    21:00 +28°C° 0 mm 9 mps 760 mmHg 47%
    22:00 +27°C° 0 mm 9 mps 760 mmHg 50%
    23:00 +27°C° 0 mm 8 mps 760 mmHg 54%

    20 August, Monday

    Time Temperature Precipitation Wind Pressure Humidity
    00:00 +26°C° 0 mm 8 mps 760 mmHg 57%
    01:00 +26°C° 0 mm 8 mps 761 mmHg 58%
    02:00 +26°C° 0 mm 8 mps 761 mmHg 60%
    03:00 +24°C° 0 mm 8 mps 761 mmHg 61%
    04:00 +24°C° 0 mm 8 mps 761 mmHg 60%
    05:00 +24°C° 0 mm 7 mps 762 mmHg 59%
    06:00 +24°C° 0 mm 7 mps 762 mmHg 58%
    07:00 +26°C° 0 mm 7 mps 762 mmHg 53%
    08:00 +28°C° 0 mm 7 mps 763 mmHg 47%
    09:00 +29°C° 0 mm 7 mps 763 mmHg 41%
    10:00 +30°C° 0 mm 7 mps 763 mmHg 39%
    11:00 +32°C° 0 mm 7 mps 763 mmHg 37%
    12:00 +32°C° 0 mm 7 mps 763 mmHg 35%
    13:00 +32°C° 0 mm 7 mps 762 mmHg 35%
    14:00 +32°C° 0 mm 6 mps 762 mmHg 36%
    15:00 +32°C° 0 mm 6 mps 762 mmHg 37%
    16:00 +30°C° 0 mm 6 mps 762 mmHg 41%
    17:00 +29°C° 0 mm 5 mps 762 mmHg 45%
    18:00 +28°C° 0 mm 5 mps 763 mmHg 49%
    19:00 +27°C° 0 mm 4 mps 763 mmHg 54%
    20:00 +26°C° 0 mm 4 mps 763 mmHg 58%
    21:00 +25°C° 0 mm 3 mps 763 mmHg 62%
    22:00 +25°C° 0 mm 3 mps 763 mmHg 64%
    23:00 +25°C° 0 mm 2 mps 763 mmHg 66%

    21 August, Tuesday

    Time Temperature Precipitation Wind Pressure Humidity
    00:00 +24°C° 0 mm 2 mps 763 mmHg 67%
    01:00 +24°C° 0 mm 2 mps 763 mmHg 68%
    02:00 +24°C° 0 mm 2 mps 763 mmHg 69%
    03:00 +24°C° 0 mm 2 mps 763 mmHg 69%
    04:00 +24°C° 0 mm 2 mps 763 mmHg 68%
    05:00 +24°C° 0 mm 2 mps 763 mmHg 67%
    06:00 +24°C° 0 mm 2 mps 763 mmHg 65%
    07:00 +26°C° 0 mm 3 mps 763 mmHg 57%
    08:00 +28°C° 0 mm 3 mps 763 mmHg 48%
    09:00 +29°C° 0 mm 3 mps 763 mmHg 40%
    10:00 +31°C° 0 mm 3 mps 763 mmHg 35%
    11:00 +33°C° 0 mm 3 mps 762 mmHg 31%
    12:00 +35°C° 0 mm 3 mps 762 mmHg 27%
    13:00 +35°C° 0 mm 4 mps 762 mmHg 27%
    14:00 +35°C° 0 mm 4 mps 761 mmHg 27%
    15:00 +36°C° 0 mm 4 mps 761 mmHg 27%
    16:00 +35°C° 0 mm 4 mps 761 mmHg 31%
    17:00 +33°C° 0 mm 4 mps 761 mmHg 35%
    18:00 +31°C° 0 mm 3 mps 762 mmHg 39%
    19:00 +30°C° 0 mm 3 mps 762 mmHg 45%
    20:00 +28°C° 0 mm 3 mps 762 mmHg 52%
    21:00 +27°C° 0 mm 2 mps 763 mmHg 58%
    22:00 +27°C° 0 mm 2 mps 762 mmHg 58%
    23:00 +27°C° 0 mm 3 mps 762 mmHg 58%

    22 August, Wednesday

    Time Temperature Precipitation Wind Pressure Humidity
    00:00 +26°C° 0 mm 3 mps 762 mmHg 58%
    01:00 +26°C° 0 mm 3 mps 762 mmHg 58%
    02:00 +26°C° 0 mm 3 mps 762 mmHg 57%
    03:00 +25°C° 0 mm 3 mps 762 mmHg 56%
    04:00 +26°C° 0 mm 4 mps 762 mmHg 54%
    05:00 +26°C° 0 mm 4 mps 762 mmHg 52%
    06:00 +26°C° 0 mm 4 mps 762 mmHg 50%
    07:00 +28°C° 0 mm 4 mps 763 mmHg 43%
    08:00 +30°C° 0 mm 4 mps 763 mmHg 37%
    09:00 +33°C° 0 mm 4 mps 763 mmHg 31%
    10:00 +34°C° 0 mm 4 mps 762 mmHg 30%
    11:00 +36°C° 0 mm 4 mps 762 mmHg 29%
    12:00 +37°C° 0 mm 4 mps 762 mmHg 28%
    13:00 +37°C° 0 mm 5 mps 761 mmHg 28%
    14:00 +38°C° 0 mm 6 mps 761 mmHg 27%
    15:00 +38°C° 0 mm 6 mps 761 mmHg 26%
    16:00 +35°C° 0 mm 6 mps 761 mmHg 28%
    17:00 +34°C° 0 mm 5 mps 762 mmHg 30%
    18:00 +33°C° 0 mm 5 mps 762 mmHg 32%
    19:00 +30°C° 0 mm 4 mps 762 mmHg 38%
    20:00 +29°C° 0 mm 3 mps 763 mmHg 43%
    21:00 +28°C° 0 mm 3 mps 763 mmHg 49%
    22:00 +27°C° 0 mm 3 mps 763 mmHg 49%
    23:00 +27°C° 0 mm 3 mps 763 mmHg 50%
    Show more